Weather in Slobodskoy

Russia / Kirov Oblast     58°43′54″N   50°11′01″E
temp.,
°C
wind,
m/s
gust,
m/s
humid.,
%
clouds,
%
prec.,
mm/h
press.,
hPa
HPBL,
m
28 february, sun
sun2800:00−19nne35985 0.0 100991
03:00−21nne36983 0.0 1011126
06:00−23nne37980 0.0 1011138
09:00−20nne35949 0.0 1012256
12:00−16nne358736 0.0 1012409
15:00−14nne368756 0.0 1014498
18:00−18nne2396100 0.0 101542
21:00−20nne229863 0.0 101820
1 march, mon
mon100:00−22nne22980 0.0 101920
03:00−22n12980 0.0 102020
06:00−23n119818 0.0 102120
09:00−18ssw12919 0.0 1021152
12:00−13sw248758 0.0 1019368
15:00−11sw368959 0.0 1017419
18:00−13ssw3995100 0.0 1014331
21:00−13ssw41194100 0.1 1012365
2 march, tue
tue200:00−10ssw51194100 0.4 1007455
03:00−10ssw51094100 1.5 1003500
06:00−9s51194100 1.1 999478
09:00−7s4994100 2.1 998427
12:00−4s4794100 0.6 996434
15:00−4sse3596100 1.6 997323
18:00−5se2397100 1.0 997134
21:00−6nw1297100 1.8 99849
3 march, wed
wed300:00−7nnw2396100 0.0 99878
03:00−8nnw229599 0.1 99930
06:00−8nw259698 0.0 100094
09:00−4nnw499398 0.1 1002561
12:00−4nnw5882100 0.2 1003964
15:00−4nnw588393 0.3 10041050
18:00−7nnw41092100 0.1 1005582
21:00−10nw3109485 0.1 1007335
4 march, thu
thu400:00−11nw399490 0.0 1007266
03:00−14wnw369774 0.0 1008127
06:00−16wnw239743 0.0 100966
09:00−12wsw249431 0.0 1009212
12:00−8sw379189 0.0 1006454
15:00−6ssw498785 0.0 1004565
18:00−6ssw61394100 0.3 1001680
21:00−4ssw61494100 1.3 997796